This is the latest recevied weather packets stored in our database for station/object EA1RCG-11. If no packets are shown the sender has not sent any weather packets the latest 10 day(s).
| Time | Temp. | Humidity | Pressure | Rain* | Wind** | Luminosity | Snow |
|---|---|---|---|---|---|---|---|
| 1777955678 | 11.11° C | 68% | 978.4 hPa | - | - | - | - |
| 1777953878 | 11.67° C | 68% | 978.6 hPa | - | - | - | - |
| 1777952078 | 11.67° C | 68% | 978.7 hPa | - | - | - | - |
| 1777950278 | 11.11° C | 68% | 978.8 hPa | - | - | - | - |
| 1777948478 | 11.67° C | 68% | 978.7 hPa | - | - | - | - |
| 1777946677 | 11.67° C | 68% | 978.9 hPa | - | - | - | - |
| 1777944877 | 11.67° C | 68% | 979.1 hPa | - | - | - | - |
| 1777943077 | 11.67° C | 68% | 979.2 hPa | - | - | - | - |
| 1777941277 | 11.11° C | 69% | 979.3 hPa | - | - | - | - |
| 1777939477 | 12.22° C | 68% | 979.5 hPa | - | - | - | - |
| 1777937677 | 12.78° C | 67% | 979.5 hPa | - | - | - | - |
| 1777935877 | 12.78° C | 67% | 979.6 hPa | - | - | - | - |
| 1777934077 | 12.78° C | 67% | 979.8 hPa | - | - | - | - |
| 1777932277 | 13.33° C | 66% | 979.8 hPa | - | - | - | - |
| 1777930477 | 13.33° C | 67% | 980 hPa | - | - | - | - |
| 1777928677 | 13.33° C | 66% | 980.1 hPa | - | - | - | - |
| 1777926876 | 13.89° C | 66% | 979.9 hPa | - | - | - | - |
| 1777925076 | 13.89° C | 66% | 979.6 hPa | - | - | - | - |
| 1777923276 | 14.44° C | 65% | 979.7 hPa | - | - | - | - |
| 1777921476 | 15° C | 64% | 979.4 hPa | - | - | - | - |
| 1777919676 | 15° C | 64% | 979.3 hPa | - | - | - | - |
| 1777917876 | 15° C | 64% | 979.5 hPa | - | - | - | - |
| 1777916076 | 15° C | 64% | 979.5 hPa | - | - | - | - |
| 1777914276 | 14.44° C | 65% | 979.1 hPa | - | - | - | - |
| 1777912475 | 14.44° C | 66% | 979.1 hPa | - | - | - | - |
* Rain since midnight (hover to see other rain measurements)
** Current wind speed in m/s (hover to see current wind gust speed)